Overview Statistics Trail Chart Weather Telemetry Raw packets
 

This is the latest recevied weather packets stored in our database for station/object IZ1MEU-13. If no packets are shown the sender has not sent any weather packets the latest 10 day(s).

<< 1 2 3 4 >>
Time Temp. Humidity Pressure Rain* Wind** Luminosity Snow
1788565937 21.67° C 55% 1021 hPa - - - -
1788564734 21.67° C 54% 1020.9 hPa - - - -
1788563530 21.67° C 54% 1021 hPa - - - -
1788562327 22.22° C 53% 1021 hPa - - - -
1788561123 22.22° C 52% 1020.9 hPa - - - -
1788559920 22.22° C 52% 1020.9 hPa - - - -
1788558716 22.22° C 52% 1020.8 hPa - - - -
1788557513 22.78° C 51% 1020.9 hPa - - - -
1788556309 22.78° C 51% 1021 hPa - - - -
1788555106 22.78° C 51% 1021 hPa - - - -
1788553902 22.78° C 51% 1021.2 hPa - - - -
1788552699 22.78° C 51% 1021.1 hPa - - - -
1788551495 22.78° C 50% 1021.2 hPa - - - -
1788550292 22.78° C 49% 1021 hPa - - - -
1788549088 23.33° C 48% 1020.8 hPa - - - -
1788547907 23.89° C 47% 1020.6 hPa - - - -
1788546681 23.89° C 46% 1020.5 hPa - - - -
1788545478 24.44° C 44% 1020.4 hPa - - - -
1788544274 25.56° C 43% 1020.2 hPa - - - -
1788543071 26.67° C 41% 1020 hPa - - - -
1788541867 27.78° C 40% 1020.2 hPa - - - -
1788540664 28.33° C 39% 1020.2 hPa - - - -
1788539460 28.89° C 38% 1020.3 hPa - - - -
1788538256 29.44° C 37% 1020.5 hPa - - - -
1788537052 30° C 36% 1020.5 hPa - - - -

* Rain since midnight (hover to see other rain measurements)
** Current wind speed in m/s (hover to see current wind gust speed)